Starlink 35809

operational
NORAD ID: 66358 Int'l Des: 2025-254 Owner: SPXS Country: US Constellation: starlink
LEOCIRCULAR

About Starlink 35809

Description loading...

Live Position

Loading 3D Globe...

Upcoming Passes

Altitude History

Altitude vs Time

uPlot chart will show altitude changes over time

Two-Line Element Set

1 66358C 25254AB 25311.11715278 .00520850 00000+0 76819-3 0 3111
2 66358 53.1600 93.7256 0009210 262.0427 119.0025 16.03650548 19
Epoch: Nov 7, 2025 • Age: 18 hours

Current Status

Altitude 263.6 km
Velocity 7.75 km/s
Sub-Earth Point 11.83°N, 61.29°W
Launch Date Nov 6, 2025
Age 1 days
Type internet

Technical Details

Classification Payload
Mass 575.00 kg
Dry Mass 530.00 kg
Total Mass 575.00 kg
Length 0.30 m
Diameter 4.10 m
Span 29.00 m
Shape Box + pan
Manufacturer SPXS
Bus Type Starlink V2MO
Phase Status In Orbit
Owner/State SPXS/US

Large Constellations

Loading constellations...